TimeEDT,TemperatureF,Dew PointF,Humidity,Sea Level PressureIn,VisibilityMPH,Wind Direction,Wind SpeedMPH,Gust SpeedMPH,PrecipitationIn,Events,Conditions,WindDirDegrees,DateUTC
12:56 AM,55.9,51.1,84,30.22,10.0,Calm,Calm,-,N/A,,Clear,0,2013-05-15 04:56:00
1:56 AM,55.9,52.0,87,30.20,10.0,Calm,Calm,-,N/A,,Clear,0,2013-05-15 05:56:00
2:56 AM,55.0,52.0,89,30.19,10.0,Calm,Calm,-,N/A,,Clear,0,2013-05-15 06:56:00
3:56 AM,54.0,51.1,90,30.17,10.0,Calm,Calm,-,N/A,,Clear,0,2013-05-15 07:56:00
4:56 AM,53.1,51.1,93,30.18,10.0,Calm,Calm,-,N/A,,Clear,0,2013-05-15 08:56:00
5:56 AM,52.0,50.0,93,30.19,10.0,Calm,Calm,-,N/A,,Clear,0,2013-05-15 09:56:00
6:56 AM,53.1,51.1,93,30.21,10.0,Calm,Calm,-,N/A,,Clear,0,2013-05-15 10:56:00
7:56 AM,59.0,55.0,87,30.23,10.0,Calm,Calm,-,N/A,,Clear,0,2013-05-15 11:56:00
8:56 AM,66.9,57.0,70,30.24,10.0,WSW,4.6,-,N/A,,Partly Cloudy,240,2013-05-15 12:56:00
9:56 AM,73.9,57.9,57,30.25,10.0,West,11.5,-,N/A,,Partly Cloudy,280,2013-05-15 13:56:00
10:56 AM,75.9,53.1,45,30.23,10.0,WNW,8.1,-,N/A,,Partly Cloudy,300,2013-05-15 14:56:00
11:56 AM,79.0,50.0,36,30.22,10.0,Calm,Calm,-,N/A,,Partly Cloudy,0,2013-05-15 15:56:00
12:56 PM,80.1,50.0,35,30.21,10.0,Variable,4.6,-,N/A,,Partly Cloudy,0,2013-05-15 16:56:00
1:56 PM,82.0,52.0,35,30.18,10.0,Variable,4.6,-,N/A,,Scattered Clouds,0,2013-05-15 17:56:00
2:56 PM,82.9,51.1,33,30.15,10.0,West,3.5,-,N/A,,Scattered Clouds,260,2013-05-15 18:56:00
3:56 PM,84.0,51.1,32,30.12,10.0,SE,3.5,-,N/A,,Partly Cloudy,130,2013-05-15 19:56:00
4:56 PM,84.0,55.0,37,30.11,10.0,SE,10.4,-,N/A,,Partly Cloudy,140,2013-05-15 20:56:00
5:56 PM,82.0,54.0,38,30.09,10.0,SE,13.8,-,N/A,,Scattered Clouds,130,2013-05-15 21:56:00
6:56 PM,80.1,52.0,38,30.09,10.0,SE,11.5,-,N/A,,Scattered Clouds,140,2013-05-15 22:56:00
7:56 PM,75.9,51.1,42,30.09,10.0,SE,11.5,-,N/A,,Mostly Cloudy,140,2013-05-15 23:56:00
8:56 PM,70.0,53.1,55,30.09,10.0,SSE,5.8,-,N/A,,Mostly Cloudy,150,2013-05-16 00:56:00
9:56 PM,69.1,55.0,61,30.10,10.0,SSE,6.9,-,N/A,,Mostly Cloudy,160,2013-05-16 01:56:00
10:56 PM,66.9,55.9,68,30.11,10.0,South,5.8,-,N/A,,Mostly Cloudy,170,2013-05-16 02:56:00
11:56 PM,66.0,57.0,73,30.10,10.0,South,5.8,-,N/A,,Scattered Clouds,170,2013-05-16 03:56:00